#timestamp,LO_Frequency,Hit,StdDev 
1698231615.8,286047002.4,P
1698231635.7,286047000.1,N
1698231655.5,286047002.5,N
1698231675.3,286047000.4,N
1698231695.2,286047000.7,N
1698231715.9,286047000.1,N
1698231735.7,286047000.1,N
1698231755.6,286047000.1,N
1698231775.4,286047000.9,N
1698231795.2,286047000.2,N
1698231815.1,286047002.6,Y
1698231816.0,286047002.6,P
1698231835.8,286047000.1,N
1698231855.7,286047000.6,N
1698231875.5,286046998.2,N
1698231895.3,286047001.0,N
1698231915.2,286047000.0,N
1698231935.0,286047002.7,N
1698231935.9,286047002.7,N
1698231955.8,286047002.6,N
1698231975.6,286047000.2,N
1698231995.4,286047000.0,N
1698232015.3,286047000.0,N
1698232035.1,286047000.2,N
1698232055.9,286047000.1,N
1698232075.7,286047000.0,N
1698232095.5,286047002.7,N
1698232115.4,286047002.4,N
1698232135.2,286046999.8,N
1698232155.0,286047000.6,N
1698232155.9,286047000.6,N
1698232175.8,286047000.1,N
1698232195.6,286047000.6,N
1698232215.5,286047000.2,N
1698232235.3,286047000.4,N
1698232255.2,286047000.9,N
1698232275.9,286047000.0,N
1698232295.7,286047000.5,N
1698232315.6,286046999.7,N
1698232335.4,286047000.1,N
1698232355.2,286047000.2,N
1698232375.1,286047002.3,N
1698232376.0,286047002.3,N
1698232395.8,286047002.5,N
1698232415.7,286047002.6,N
1698232435.5,286046999.8,N
1698232455.3,286047000.7,N
1698232475.2,286047000.4,N
1698232495.0,286047000.0,N
1698232495.9,286047000.0,N
1698232515.8,286046999.8,N
1698232535.6,286047001.9,N
1698232555.4,286047002.8,N
1698232575.3,286047000.8,N
1698232595.1,286046999.7,N
1698232615.8,286047000.2,N
1698232635.7,286047000.0,N
1698232655.5,286047000.5,N
1698232675.4,286047000.5,N
1698232695.2,286047002.7,N
1698232715.0,286047002.1,N
1698232715.9,286047002.1,N
1698232735.8,286046999.8,N
1698232755.6,286047002.5,N
1698232775.5,286047002.4,N
1698232795.3,286047002.5,N
1698232815.1,286047000.1,N
1698232835.9,286047002.6,N
1698232855.7,286047002.4,N
1698232875.6,286047000.1,N
1698232895.4,286047002.4,N
1698232915.2,286047001.5,N
1698232935.1,286047001.6,N
1698232936.0,286047001.6,N
1698232955.8,286047001.3,N
1698232975.6,286047002.1,N
1698232995.5,286047002.1,N
1698233015.3,286047001.9,N
1698233035.2,286047001.8,N
1698233055.9,286047003.4,Y
1698233075.7,286047001.9,P
1698233095.6,286047002.4,P
1698233115.4,286047002.6,P
1698233135.3,286046999.9,N
1698233155.1,286047002.7,N
1698233156.0,286047002.7,N
1698233175.8,286047002.2,N
1698233195.7,286047001.5,N
1698233215.5,286047001.6,N
1698233235.4,286047002.2,N
1698233255.2,286047002.1,N
1698233275.0,286047001.8,N
1698233275.9,286047001.8,N
1698233295.8,286047001.4,N
1698233315.6,286047001.8,N
1698233335.5,286047001.5,N
1698233355.3,286047001.5,N
1698233375.1,286047001.5,N
1698233395.9,286047001.8,N
1698233415.7,286047002.0,Y
1698233435.5,286047000.2,P
1698233455.4,286047002.6,P
1698233475.2,286047002.3,N
1698233495.1,286047000.4,N
1698233496.0,286047000.4,N
1698233515.8,286047001.1,N
1698233535.6,286046999.4,N
1698233555.5,286046998.9,N
1698233575.3,286046998.3,N
1698233595.1,286046998.9,N
1698233615.9,286046999.3,N
1698233635.7,286046998.8,N
1698233655.6,286046999.3,N
1698233675.4,286046998.7,N
1698233695.2,286046998.6,N
1698233715.1,286046999.0,N
1698233716.0,286046999.0,N
1698233735.8,286046998.8,N
1698233755.7,286046999.5,N
1698233775.5,286046996.9,N
1698233795.3,286046999.5,N
1698233815.2,286046999.2,N
1698233835.0,286046997.0,N
1698233835.9,286046997.0,N
1698233855.7,286046999.6,N
1698233875.6,286046997.1,N
1698233895.4,286046998.9,N
1698233915.3,286046999.5,N
1698233935.1,286046999.1,N
1698233936.0,286046999.1,N
1698233955.8,286046998.5,N
1698233975.7,286046998.8,N
1698233995.5,286046998.9,N
1698234015.3,286046998.4,N
1698234035.2,286047000.9,N
1698234055.0,286047000.9,N
1698234055.9,286047000.9,N
1698234075.8,286046998.7,N
1698234095.6,286047001.1,N
1698234115.4,286046999.8,N
1698234135.3,286046999.9,N
1698234155.1,286047001.2,N
1698234175.8,286047000.4,N
1698234195.7,286046998.1,N
1698234215.5,286047001.1,N
1698234235.4,286047000.8,N
1698234255.2,286047000.9,N
1698234275.0,286046998.6,N
1698234275.9,286046998.6,N
1698234295.8,286047000.9,N
1698234315.6,286047000.6,N
1698234335.5,286047000.4,N
1698234355.3,286047000.3,N
1698234375.1,286047002.7,N
1698234395.9,286047002.8,N
1698234415.7,286046999.7,N
1698234435.6,286047002.6,N
1698234455.4,286047002.7,N
1698234475.2,286047002.6,N
1698234495.1,286047000.4,N
1698234496.0,286047000.4,N
1698234515.8,286047000.5,N
1698234535.7,286047001.0,N
1698234555.5,286047000.5,N
1698234575.3,286046998.6,N
1698234595.2,286047001.0,N
1698234615.0,286046998.8,N
1698234615.9,286046998.8,N
1698234635.8,286046998.4,N
1698234655.6,286046998.4,N
1698234675.4,286047000.7,N
1698234695.3,286046998.2,N
1698234715.1,286046999.0,N
1698234735.8,286046999.0,N
1698234755.7,286046999.3,N
1698234775.5,286046999.2,N
1698234795.4,286046997.4,N
1698234815.2,286046997.5,N
1698234835.0,286046995.6,N
1698234835.9,286046995.6,N
1698234855.8,286046995.7,N
1698234875.6,286046996.0,N
1698234895.4,286046993.5,Y
1698234915.3,286046994.2,P
1698234935.1,286046993.6,N
1698234955.9,286046993.6,N
1698234975.7,286046993.3,N
1698234995.5,286046995.9,N
1698235015.4,286046994.4,N
1698235035.2,286046993.4,Y
1698235055.0,286046998.2,P
1698235056.0,286046998.2,N
1698235075.8,286046997.0,N
1698235095.6,286046999.5,N
1698235115.5,286046999.1,N
1698235135.3,286046998.7,N
1698235155.1,286046999.2,N
1698235175.9,286046996.9,N
1698235195.7,286046997.2,N
